Wind_Speed
13 14 13 12 13 13 12 12 13 15 18 16 16 19 20 18 19 20 19 20 19 20 18 19 19 20 22 22 22 22 22 23 24 24 24 24 24 25 25 25 24 24 25 25
11 12 12 12 13 15 15 14 15 16 19 17 17 18 19 19 20 20 21 20 20 19 18 18 20 21 21 22 23 23 23 24 24 24 25 25 25 25 25 24 24 25 25 25
10 10 12 14 15 17 15 15 15 17 19 18 16 17 19 20 21 21 20 21 21 21 19 20 21 21 22 22 22 23 24 25 25 25 25 25 25 24 23 23 23 24 24 24
10 11 14 15 15 15 16 16 17 18 19 18 17 18 21 20 22 21 20 21 21 22 20 20 21 21 22 21 22 23 23 25 25 26 25 25 24 24 23 23 23 23 23 23
11 13 14 14 13 14 15 15 17 17 18 18 19 20 20 22 23 23 22 21 21 21 21 20 21 22 22 22 23 24 25 26 26 26 25 25 25 24 23 23 24 25 25 24
12 13 14 14 14 15 16 15 16 16 17 19 18 20 21 24 24 23 21 21 20 20 21 20 21 22 22 23 24 25 25 26 27 26 24 24 23 23 23 23 24 24 24 24
11 12 13 14 14 15 16 15 15 16 18 20 19 21 22 25 23 22 19 20 21 21 21 21 22 22 23 24 25 25 25 26 27 25 25 24 23 23 23 23 23 22 22 22
10 11 13 14 14 15 17 16 16 16 17 18 17 19 22 22 21 21 18 20 22 22 22 22 22 23 24 24 25 25 25 25 25 25 25 24 24 23 23 23 23 23 23 24
11 12 14 14 15 15 16 16 15 17 17 18 18 18 20 21 21 21 21 21 22 22 22 23 23 22 23 24 24 25 25 25 25 24 24 24 24 24 24 24 24 23 24 24
13 13 13 14 14 15 16 16 17 18 17 19 19 20 21 20 19 20 21 22 22 22 22 23 23 24 24 25 24 25 25 25 25 24 24 24 25 25 25 25 24 24 24 23
14 14 13 14 14 14 16 16 18 18 19 19 19 21 21 21 19 20 20 21 22 22 22 23 23 24 24 24 25 25 25 26 25 25 26 26 26 26 26 26 25 24 24 25
14 14 14 14 14 15 16 16 18 20 20 20 22 24 23 22 21 18 19 20 22 23 23 23 24 24 24 25 25 26 25 25 25 26 26 26 27 26 26 26 25 25 25 25
12 14 14 13 12 15 16 15 16 18 20 20 21 23 22 20 20 18 20 22 22 23 23 23 24 24 24 24 24 24 25 25 26 26 26 26 26 25 24 24 24 24 24 24
11 11 11 11 10 12 13 14 15 17 18 19 20 21 21 22 21 19 20 21 22 22 21 22 24 24 24 25 25 25 25 26 26 26 25 25 24 24 24 24 23 23 22 22
10 11 10 9 10 11 13 13 14 16 17 20 21 21 22 22 22 21 19 21 22 22 22 23 23 24 24 25 25 25 25 25 25 25 25 24 24 23 23 23 22 21 21 21
9 10 10 10 10 11 12 14 15 17 19 20 21 21 22 22 22 21 19 20 21 23 23 23 23 24 24 24 25 25 24 23 23 23 23 22 22 22 22 21 20 19 20 20
9 9 8 8 8 10 13 14 16 18 18 19 20 20 19 20 19 19 19 20 20 21 21 22 22 23 22 22 22 23 23 23 22 21 21 20 20 20 19 18 18 18 18 18
9 8 8 8 9 11 12 13 15 16 16 17 18 18 18 19 18 18 19 19 19 19 19 19 19 20 20 20 20 20 19 18 18 18 17 17 16 16 16 16 16 15 14 14
8 8 8 8 9 11 11 11 13 13 13 14 15 15 16 17 17 17 16 16 16 16 17 17 17 17 18 18 17 16 15 15 15 14 14 14 13 13 14 14 13 12 12 11
7 7 7 8 10 11 10 9 10 11 11 12 12 13 14 15 14 14 13 13 14 15 15 15 15 16 16 16 14 13 13 13 13 12 12 12 11 12 12 11 10 10 9 9
7 7 7 8 9 9 8 9 9 10 10 10 10 10 11 11 12 11 12 12 13 13 13 13 13 14 14 13 12 12 11 11 10 9 9 9 9 9 9 8 8 7 7 6
6 6 7 7 8 9 8 9 9 9 9 10 9 9 10 10 10 10 10 11 12 12 12 12 12 12 12 12 11 10 9 8 8 8 8 7 7 7 7 6 6 5 4 3
7 6 7 7 7 8 8 9 9 9 9 8 8 8 8 8 8 9 10 10 10 11 10 10 11 10 10 10 10 9 8 7 8 7 7 6 6 6 6 5 3 2 1 2
6 6 6 6 6 7 7 8 8 8 7 7 7 7 7 7 8 8 9 9 9 9 9 9 9 9 9 9 9 8 7 7 7 7 8 6 5 5 4 4 3 2 2 2
6 6 5 5 6 6 6 7 7 7 6 6 6 6 6 7 7 7 8 8 8 8 9 9 9 8 8 8 8 8 8 8 8 7 7 7 6 6 5 4 4 4 4 3
4 4 4 4 5 6 6 6 6 5 5 5 4 5 5 6 7 8 7 7 7 7 7 7 8 7 8 8 9 9 9 9 8 8 8 7 7 6 6 6 5 6 6 6
Wind_Direction
202 201 202 207 206 196 208 220 232 240 254 253 247 254 259 266 272 274 273 272 272 273 273 276 280 284 287 290 291 292 291 289 290 288 287 285 282 281 280 280 278 274 271 270
199 202 199 206 210 209 209 214 218 235 245 253 247 254 258 261 268 271 271 272 276 274 277 278 282 283 286 289 290 290 291 291 291 289 290 287 283 280 281 281 276 273 272 272
197 213 215 214 217 214 212 212 217 233 248 258 257 255 259 262 269 271 270 271 275 276 279 280 282 285 287 289 290 289 289 291 292 290 289 287 284 281 279 276 275 275 275 274
204 222 223 221 220 218 214 218 224 230 244 255 260 261 261 264 268 270 274 273 275 277 280 282 283 285 285 287 291 291 290 291 291 290 288 287 284 282 279 279 280 280 279 276
215 229 229 224 221 220 216 222 231 235 242 250 258 260 265 266 269 272 273 270 274 278 280 282 284 285 284 285 289 291 289 290 291 291 291 289 288 286 283 281 281 282 282 279
217 229 230 223 221 222 221 224 231 237 242 248 254 259 262 267 269 270 270 272 277 281 283 284 286 284 284 284 287 290 289 290 291 292 292 291 290 289 288 285 284 283 281 280
232 234 234 228 226 226 225 228 235 243 247 252 252 254 257 267 271 271 271 278 280 282 285 284 287 287 285 284 285 287 289 289 290 290 291 291 290 290 290 290 289 287 285 281
234 243 243 237 232 232 232 228 232 248 260 262 259 254 256 264 270 277 275 278 279 281 282 285 288 289 288 286 285 286 289 290 290 291 290 288 288 288 289 290 290 288 285 283
220 231 244 246 241 234 232 230 230 245 261 268 261 259 259 259 266 274 276 276 278 280 283 286 288 290 290 288 288 287 287 289 291 292 289 288 287 288 290 291 290 287 285 284
228 223 235 241 242 238 236 234 233 239 255 267 267 264 260 263 265 272 274 276 279 281 284 286 289 290 291 291 290 288 287 287 289 290 290 288 287 287 290 291 289 288 286 285
233 229 229 235 240 240 238 236 234 241 247 261 273 272 270 277 278 276 278 279 281 282 284 286 288 290 291 292 290 289 287 288 289 289 289 288 289 289 289 289 289 288 288 287
239 235 230 234 236 234 236 236 239 244 249 254 262 271 276 281 282 281 283 285 285 283 285 286 289 290 289 291 291 290 288 288 288 289 289 289 289 288 287 288 289 287 286 286
242 241 234 229 232 233 237 240 241 244 252 257 263 271 276 280 282 281 284 287 286 287 287 288 290 292 293 293 293 292 290 289 288 289 289 289 287 287 287 287 288 287 287 287
241 243 242 232 230 242 245 245 246 249 252 259 261 270 276 282 284 282 282 285 287 289 289 289 290 292 294 295 295 295 293 291 290 290 289 289 289 288 288 288 288 288 287 286
239 239 246 241 236 242 247 249 250 255 258 261 265 270 276 280 282 285 285 286 287 287 288 291 293 294 294 295 296 295 295 294 293 291 290 290 290 289 288 288 289 288 287 286
243 243 249 251 243 244 244 246 247 252 258 263 267 269 272 278 281 286 287 287 287 287 289 291 292 294 295 295 296 297 297 295 294 294 293 291 290 290 291 290 290 291 290 287
253 251 254 261 258 257 255 263 262 261 261 266 270 274 278 282 286 287 288 287 288 288 291 292 294 298 301 302 303 300 299 297 296 294 292 290 290 290 293 290 290 292 292 290
255 259 258 259 263 264 271 269 269 268 269 273 275 277 277 284 290 292 292 291 291 292 296 298 299 303 304 305 305 304 302 299 298 297 295 294 293 293 293 292 291 289 290 290
241 248 259 266 270 274 279 278 280 280 277 279 280 280 281 286 290 295 295 295 298 298 302 306 307 309 311 311 310 309 305 304 303 301 302 301 300 299 295 294 291 289 290 292
258 258 262 275 273 271 282 285 289 290 290 288 290 291 291 291 293 295 298 301 306 306 308 312 312 315 318 318 315 314 314 312 309 306 305 304 304 303 299 298 297 295 291 291
267 268 267 273 280 286 289 293 295 293 298 299 301 299 297 300 303 304 305 310 313 314 317 319 321 323 325 326 326 324 323 324 322 316 313 311 310 309 307 304 302 302 293 287
255 264 273 281 290 292 291 296 297 300 299 299 307 306 301 306 312 312 313 316 319 320 321 323 326 328 331 333 335 335 336 337 335 331 330 325 327 328 324 313 305 300 300 298
265 271 279 286 292 297 292 295 298 301 300 300 306 312 312 314 318 321 319 320 324 329 330 333 332 331 337 342 344 343 343 348 352 347 344 337 331 336 339 338 332 332 334 340
264 269 279 287 295 300 297 300 305 308 307 306 310 313 316 323 323 324 326 328 331 338 343 343 343 343 345 350 355 356 358 4 10 11 8 0 352 352 357 360 18 33 28 36
258 261 272 286 301 310 314 317 318 317 318 319 318 323 323 324 330 334 334 338 341 347 351 351 354 357 356 358 4 11 17 19 18 15 15 17 22 28 30 34 49 58 58 58
259 269 281 296 306 312 320 325 329 328 328 329 330 334 336 336 338 343 345 348 354 357 360 2 5 11 15 17 19 20 20 22 26 29 31 34 40 45 45 51 58 66 74 75
Height
5835 5839 5841 5845 5848 5851 5855 5858 5860 5861 5859 5859 5860 5859 5858 5858 5859 5859 5859 5858 5857 5857 5856 5857 5857 5856 5856 5855 5853 5852 5851 5849 5848 5846 5845 5843 5843 5842 5842 5841 5841 5840 5840 5840
5836 5838 5841 5843 5847 5849 5852 5855 5858 5859 5857 5856 5857 5857 5856 5856 5856 5856 5856 5854 5853 5852 5851 5851 5852 5852 5851 5850 5849 5848 5846 5844 5843 5842 5840 5839 5838 5837 5836 5836 5835 5835 5835 5834
5834 5838 5839 5841 5844 5847 5850 5853 5855 5856 5855 5855 5855 5855 5854 5852 5852 5852 5851 5850 5850 5849 5848 5848 5848 5847 5847 5846 5844 5843 5841 5840 5837 5836 5835 5833 5832 5832 5831 5830 5830 5830 5829 5829
5833 5835 5837 5839 5841 5844 5847 5850 5851 5852 5853 5852 5853 5852 5851 5848 5849 5848 5847 5846 5846 5844 5845 5844 5844 5843 5842 5841 5840 5838 5837 5835 5833 5832 5830 5829 5827 5827 5826 5825 5824 5824 5823 5823
5831 5833 5834 5837 5839 5841 5844 5846 5847 5848 5849 5850 5849 5849 5848 5844 5844 5843 5842 5842 5841 5840 5840 5840 5840 5838 5837 5836 5835 5834 5832 5830 5829 5827 5825 5824 5822 5821 5821 5820 5819 5819 5818 5817
5829 5830 5832 5834 5836 5839 5840 5843 5844 5844 5845 5846 5846 5845 5844 5840 5840 5838 5837 5837 5837 5837 5836 5836 5835 5834 5832 5831 5830 5829 5827 5825 5824 5822 5820 5818 5817 5816 5815 5814 5814 5813 5812 5812
5827 5828 5829 5831 5833 5835 5837 5839 5841 5841 5841 5842 5842 5840 5839 5837 5836 5834 5832 5834 5833 5833 5832 5831 5830 5829 5827 5826 5825 5823 5822 5820 5819 5817 5815 5813 5812 5811 5810 5809 5808 5807 5806 5806
5825 5827 5827 5828 5830 5832 5834 5836 5838 5839 5838 5837 5837 5835 5833 5831 5831 5830 5829 5830 5829 5829 5828 5827 5826 5824 5823 5821 5819 5818 5816 5815 5813 5812 5810 5808 5807 5806 5805 5803 5802 5801 5801 5800
5822 5824 5825 5825 5827 5829 5830 5832 5834 5835 5834 5833 5832 5830 5828 5826 5826 5826 5826 5826 5825 5825 5824 5823 5821 5820 5818 5816 5814 5813 5811 5810 5808 5806 5805 5803 5801 5800 5799 5797 5796 5795 5794 5794
5819 5821 5822 5823 5824 5826 5828 5829 5830 5831 5830 5829 5828 5827 5824 5822 5821 5823 5822 5822 5821 5820 5819 5818 5816 5815 5813 5811 5809 5807 5805 5804 5802 5801 5799 5797 5796 5794 5793 5792 5790 5789 5788 5787
5816 5818 5820 5820 5821 5823 5824 5825 5826 5827 5827 5826 5824 5823 5819 5818 5818 5819 5818 5817 5816 5816 5814 5813 5811 5810 5808 5805 5803 5801 5800 5798 5796 5795 5793 5791 5789 5788 5787 5786 5784 5783 5782 5781
5813 5815 5816 5817 5818 5819 5820 5821 5823 5823 5822 5822 5820 5821 5816 5815 5814 5814 5814 5812 5811 5810 5809 5807 5806 5804 5802 5800 5798 5796 5794 5792 5790 5788 5787 5785 5783 5782 5780 5779 5778 5777 5776 5775
5810 5812 5812 5814 5817 5817 5817 5818 5819 5819 5819 5818 5817 5817 5813 5812 5811 5810 5809 5809 5807 5805 5804 5802 5800 5798 5797 5795 5792 5790 5788 5786 5784 5782 5781 5779 5777 5776 5774 5773 5772 5771 5770 5769
5808 5809 5810 5811 5812 5812 5813 5815 5815 5815 5815 5814 5813 5811 5810 5809 5807 5806 5805 5804 5802 5800 5799 5797 5795 5793 5791 5789 5787 5784 5782 5780 5778 5776 5774 5772 5771 5769 5768 5767 5766 5765 5764 5763
5806 5807 5807 5807 5809 5810 5810 5812 5812 5811 5811 5810 5809 5807 5806 5805 5803 5801 5799 5799 5797 5795 5794 5792 5790 5787 5785 5783 5781 5778 5776 5773 5771 5769 5768 5766 5765 5763 5762 5761 5760 5759 5758 5757
5804 5804 5805 5805 5806 5806 5807 5808 5808 5808 5807 5806 5805 5803 5802 5800 5799 5797 5795 5794 5793 5791 5789 5787 5785 5782 5780 5777 5775 5772 5770 5767 5765 5763 5761 5760 5759 5757 5756 5755 5754 5753 5753 5752
5802 5802 5802 5803 5803 5803 5803 5803 5804 5803 5803 5802 5801 5799 5797 5796 5794 5793 5791 5790 5788 5787 5785 5782 5780 5777 5774 5772 5769 5766 5764 5761 5759 5757 5756 5754 5753 5752 5751 5750 5749 5749 5748 5747
5800 5800 5800 5800 5801 5800 5802 5800 5800 5799 5799 5798 5796 5795 5794 5792 5790 5789 5787 5786 5784 5782 5780 5778 5775 5773 5770 5767 5764 5761 5758 5756 5754 5752 5751 5749 5748 5747 5747 5746 5745 5744 5743 5743
5798 5798 5798 5798 5798 5798 5798 5797 5796 5795 5795 5794 5792 5791 5790 5789 5787 5785 5784 5782 5781 5778 5776 5774 5771 5769 5766 5763 5760 5757 5754 5752 5750 5748 5747 5746 5745 5744 5743 5742 5741 5741 5740 5739
5796 5796 5797 5796 5796 5796 5796 5795 5794 5794 5792 5791 5789 5788 5787 5785 5784 5783 5781 5779 5777 5775 5773 5771 5768 5766 5763 5760 5757 5754 5752 5749 5747 5746 5744 5743 5742 5741 5740 5739 5739 5738 5737 5737
5795 5795 5795 5795 5794 5793 5794 5793 5793 5793 5791 5789 5787 5785 5784 5783 5781 5780 5778 5777 5775 5773 5771 5768 5766 5763 5760 5757 5754 5752 5749 5747 5745 5744 5742 5741 5740 5739 5738 5737 5736 5736 5735 5735
5794 5794 5794 5794 5793 5794 5792 5791 5791 5790 5788 5786 5785 5784 5782 5781 5779 5778 5776 5775 5773 5771 5769 5766 5764 5761 5758 5755 5753 5750 5748 5746 5744 5743 5741 5740 5739 5738 5737 5736 5735 5735 5735 5735
5793 5793 5793 5793 5794 5792 5790 5789 5788 5787 5786 5785 5784 5782 5781 5780 5778 5777 5775 5773 5772 5769 5767 5765 5762 5759 5757 5754 5752 5750 5748 5746 5744 5742 5741 5739 5739 5737 5736 5736 5735 5735 5735 5734
5792 5792 5792 5792 5791 5790 5789 5788 5787 5785 5784 5783 5782 5781 5780 5779 5777 5776 5774 5772 5770 5768 5766 5763 5761 5759 5756 5754 5752 5750 5747 5746 5744 5742 5741 5740 5739 5737 5737 5736 5735 5735 5735 5735
5791 5791 5791 5790 5790 5789 5788 5787 5785 5784 5783 5782 5781 5780 5779 5778 5776 5775 5773 5772 5770 5768 5765 5763 5761 5759 5757 5755 5752 5750 5748 5746 5745 5743 5742 5741 5739 5738 5738 5737 5736 5736 5736 5736
5789 5790 5790 5790 5789 5788 5787 5786 5784 5783 5782 5781 5780 5779 5778 5777 5776 5774 5773 5771 5769 5767 5766 5763 5761 5759 5757 5755 5753 5751 5749 5748 5746 5745 5743 5742 5741 5740 5739 5739 5738 5738 5737 5737